Regional Weather Roundup
Issued by NWS

Home | Current Version | Previous Version | Graphics & Text | Print | Product List | Glossary On
Versions: 1 2 3 4 5 6 7 8 9 10 11 12 13 14 15 16 17 18 19 20 21 22 23 24 25 26 27 28 29 30 31 32 33 34 35 36 37 38 39 40 41 42 43 44 45 46 47 48 49 50
000
ASUS45 KSLC 042210
RWRUT

UTAH REGIONAL WEATHER ROUNDUP
NATIONAL WEATHER SERVICE SALT LAKE CITY UT
400 PM MDT MON MAY 04 2015

UTZ001>011-023>025-042300-

NORTHERN UTAH

CITY           SKY/WX    TMP DP  RH WIND       PRES   REMARKS
BRIGHAM CITY   PTSUNNY   75  35  23 SE10      29.86F
HILL AFB       PTSUNNY   68  43  40 E16G24    29.90S
LOGAN          MOSUNNY   72  38  29 SE12      29.88F
OGDEN          PTSUNNY   68  40  35 E21       29.88S
PROVO AIRPORT  PTSUNNY   70  43  37 S10       29.89F
SALT LAKE CITY LGT RAIN  67  47  48 S6        29.86S
VERNAL         PTSUNNY   71  35  26 S5        29.91F
WENDOVER       CLOUDY    75  34  22 E5        29.86F
HEBER CITY     CLOUDY    61  43  51 NW6       29.96F
WEST JORDAN    PTSUNNY   68  45  42 NW12G17   29.91R

$$

UTZ012>022-026-027-042300-

SOUTHERN/CENTRAL UTAH

CITY           SKY/WX    TMP DP  RH WIND       PRES   REMARKS
BLANDING       PTSUNNY   64  40  41 S22G30    30.02S
BRYCE CANYON   CLOUDY    56  37  49 W16       30.02F
CEDAR CITY     CLOUDY    66  38  35 W7        29.92F
DELTA          MOSUNNY   72  33  23 SE7       29.86F
HANKSVILLE     PTSUNNY   70  41  35 W3        29.89F
MILFORD        CLOUDY    69  36  29 SE16G24   29.89F
MOAB/CYNLANDS  MOSUNNY   71  37  28 CALM      29.85F
PRICE          MOSUNNY   68  36  30 S8        29.93F
ST GEORGE      CLOUDY    77  41  27 NW21      29.85F
KANAB          CLOUDY    64  39  39 SE15      29.95F

$$

REGIONAL REPORTS     COLORADO/ARIZONA

CITY           SKY/WX    TMP DP  RH WIND       PRES   REMARKS
CRAIG, CO      CLOUDY    59  37  44 S13       30.00F
GRAND JUNCTION PTSUNNY   65  40  39 SW22G30   29.92R
RIFLE          CLOUDY    64  39  39 CALM      29.95F
MONTROSE       CLOUDY    66  36  32 W9        29.97F
CORTEZ         CLOUDY    62  40  44 SE22G37   29.97R
PAGE, AZ       CLOUDY    69  42  37 E7        29.89F
GRAND CANYON   CLOUDY    51  45  79 SW9       30.03F
KINGMAN        LGT RAIN  58  51  78 NE22      29.97R
FLAGSTAFF      LGT RAIN  50  41  71 S10       30.02R

$$

REGIONAL REPORTS    NEVADA/IDAHO/WYOMING

CITY           SKY/WX    TMP DP  RH WIND       PRES   REMARKS
LAS VEGAS, NV  CLOUDY    72  48  42 SW17G28   29.80S THUNDER
ELY            LGT RAIN  52  43  71 W10       30.02R
ELKO           CLOUDY    75  27  17 N9G20     29.86F
POCATELLO, ID  MOSUNNY   74  30  19 CALM      29.88F
BURLEY         CLOUDY    71  37  28 S9        29.84F
EVANSTON, WY   LGT RAIN  52  39  61 CALM      30.06R
ROCK SPRINGS   PTSUNNY   60  36  40 S17       30.00F
KEMMERER       DRIZZLE   55  34  44 NE7       30.04F

$$



USA.gov is the U.S. government's official web portal to all federal, state and local government web resources and services.